Regional Weather Roundup
Issued by NWS

Home | Current Version | Previous Version | Text Only | Print | Product List | Glossary On
Versions: 1 2 3 4 5 6 7 8 9 10 11 12 13 14 15 16 17 18 19 20 21 22 23 24 25 26 27 28 29 30 31 32 33 34 35 36 37 38 39 40 41 42 43 44 45 46 47 48 49 50
000
ASUS44 KJAN 031310
RWRMS

MISSISSIPPI HOURLY WEATHER ROUNDUP
NATIONAL WEATHER SERVICE JACKSON MS
700 AM CST SAT DEC 03 2016

NOTE: "FAIR: INDICATES FEW OR NO CLOUDS BELOW 12,000 FEET WITH NO
SIGNIFICANT WEATHER AND/OR OBSTRUCTIONS TO VISIBILITY.

MSZ001>002-007>008-010>013-018>021-025>028-034>036-031400-
NORTHWEST MISSISSIPPI

CITY           SKY/WX    TMP DP  RH WIND       PRES   REMARKS
CLEVELAND      RAIN      46  44  91 NE8       30.25S
GREENWOOD      LGT RAIN  47  38  71 NE7       30.25S
GREENVILLE     LGT RAIN  47  39  74 NE8       30.22F
OXFORD         FAIR      45  32  61 NE9       30.29S
WINONA         LGT RAIN  46  39  76 NE3       30.25R
$$

MSZ003>006-009-014>017-022>024-029>033-037>039-031400-
NORTHEAST MISSISSIPPI

CITY           SKY/WX    TMP DP  RH WIND       PRES   REMARKS
COLUMBUS AFB   CLOUDY    47  36  64 CALM      30.25S
GOLDN TRIANGLE MOCLDY    46  36  66 CALM      30.22R
STARKVILLE     LGT RAIN  46  36  66 CALM      30.27R
TUPELO         CLOUDY    45  34  65 N8        30.28R
$$

MSZ040-058-031400-
CENTRAL MISSISSIPPI

CITY           SKY/WX    TMP DP  RH WIND       PRES   REMARKS
JACKSON INTL   LGT RAIN  47  44  90 SE5       30.25R
JACKSON HAWKNS RAIN      47  44  90 E7        30.25R FOG
MADISON        LGT RAIN  45  41  87 CALM      30.25R
MERIDIAN KEY   LGT RAIN  50  45  83 CALM      30.24F
MERIDIAN NAS   CLOUDY    49  38  65 SE3       30.25F
VICKSBURG VKS  PTSUNNY   48  45  87 VRB6G15   30.22S FOG
$$

MSZ059>079-031400-
SOUTH MISSISSIPPI

CITY           SKY/WX    TMP DP  RH WIND       PRES   REMARKS
BROOKHAVEN     PTSUNNY  N/A N/A N/A CALM      30.21S
COLUMBIA       LGT RAIN  48  43  81 NE8       30.21F
HATTIESBURG    LGT RAIN  53  39  59 E6        30.22S
LAUREL         CLOUDY    49  41  72 NE7       30.23F
MCCOMB         CLOUDY    49  42  77 NE9       30.17R
NATCHEZ        CLOUDY    48  43  81 NE8       30.17S
PINE BELT      CLOUDY    50  39  66 NE7       30.23S
$$

MSZ080>082-031400-
COASTAL MISSISSIPPI

CITY           SKY/WX    TMP DP  RH WIND       PRES   REMARKS
BAY ST LOUIS   MOCLDY    55  34  44 E12       30.15
BILOXI         CLOUDY    55  41  59 NE12      30.16R
PASCAGOULA     CLOUDY    53  42  66 NE6       30.18R
GULFPORT       CLOUDY    57  39  51 NE14G22   30.17R
$$

LAZ007>009-015>016-023>026-031400-
NORTHEAST LOUISIANA

CITY           SKY/WX    TMP DP  RH WIND       PRES   REMARKS
BASTROP        LGT RAIN  46  46  99 E3        30.23S
TALLULAH/VBURG RAIN      47  45  93 E8        30.23F
VIDALIA        CLOUDY    49  45  86 E13       30.20R
$$



USA.gov is the U.S. government's official web portal to all federal, state and local government web resources and services.